FENGYUN 1C DEB

Satellite information

Favourite Embed

Satellite Type and Status

DEBRISIN ORBIT

Key statistics

Satellite FENGYUN 1C DEB at a glance.

Uptime

9496

Days in orbit

Revolutions

≈ 14.5

Per day

Orbit

SSO

Sun Synchronous Orbit

Inclination

99.1

Latest

Satellite identification and parameters

Extended collection of information and parameters for FENGYUN 1C DEB.

Object identification

Identified? True

Debris? True

Object name: FENGYUN 1C DEB

International designator: 1999-025AUY

Object number (NORAD): 30814

Object ID (CCSDS): 30814

Country: PEOPLES REPUBLIC OF CHINA (PRC)

Current information (Y/N): Y

RCS size: SMALL

Orbital parameters

Period: 99.014 minutes

Inclination: 99.0706 deg

SMA: 7089.633 km

Apoapsis: 736.873 km

Periapsis: 686.123 km

RAAN: 85.4873 deg

Eccentricy: 0.0035792

Argument of periapsis: 167.3728 deg

Mean anomaly: 345.5619 deg

Mean motion: 14.54343911 rev/day

Mean motion (dot): 0.00009749 rev/day2

B* drag term: 0.0022859 1/REarth

Two-line elements (TLE)

Creation date: May 9, 2025, 2:46 a.m.

Reference frame: TEME

Reference center: EARTH

Epoch: May 8, 2025, 8:27 a.m. UTC

TLE line 0: 0 FENGYUN 1C DEB

TLE line 1: 1 30814U 99025AUY 25128.35216758 .00009749 00000-0 22859-2 0 9993

TLE line 2: 2 30814 99.0706 85.4873 0035792 167.3728 345.5619 14.54343911945628

Live tracking on map

Real-time ground track for satellite FENGYUN 1C DEB.

In-orbit conjunctions

A list of the most updated potential collisions computed for object FENGYUN 1C DEB.

Target Orbit TCA Probability of collision Miss distance Type
NOAA 16 DEB SSO 2024-11-11 06:58:35 0.0001537932 632.0 (m) DEBRIS
COSMOS 2251 DEB LEO 2024-11-10 21:15:53 0.0004039668 222.0 (m) DEBRIS
COSMOS 1048 LEO 2024-09-20 19:45:41 0.0001114334 825.0 (m) PAYLOAD

Associated space launch

Chinese polar orbiting meteorological satellite

FENGYUN 1C DEB was lifted into orbit during the mission ‘Long March 4B | Feng Yun 1C’, on board a Long March 4B space rocket.

The launch took place on May 10, 1999, 1:33 a.m. from Launch Complex 7.

For more information about the launch, click the button.

Launch to space Long March 4B | Feng Yun 1C
Long March 4B | Feng Yun 1C

Agency: N/A

Status: Launch Successful

Launch date: May 10, 1999, 1:33 a.m. UTC

Rocket: Long March 4B

Launch pad: Launch Complex 7

Location: Taiyuan Satellite Launch Center, People's Republic of China

...

Latest news about this satellite

There are no fresh news available about this satellite. Check back as we update our databases every day.


Newsletter sign-up

Weekly statistics, charts and insights to help you stay on top of the space industry.